User: anonymous   Login
Location: Bakhuizen
(52.8696°N, 5.4575°E)
Time: 23:30:20
(UTC+00:00)
Language:

Cosmos 773 Rocket - Orbit

View from above orbital plane
View from above orbital plane
View from above satellite
View from above satellite

Ground track
Ground track

The orbit data is extracted from the following two-line orbital elements,

1 08344U 75094B   21204.53043586  .00000014  00000-0  12894-4 0  9990
2 08344  74.0556 246.2954 0020842 134.5049 225.7814 14.39185814400795
Epoch (UTC): 23 July 2021 12:43:49
Eccentricity: 0.0020842
inclination: 74.0556°
perigee height: 746 km
apogee height: 776 km
right ascension of ascending node: 246.2954°
argument of perigee: 134.5049°
revolutions per day: 14.39185814
mean anomaly at epoch: 225.7814°
orbit number at epoch: 40079

The dashed part of the orbit path shows where the satellite is in the earth's shadow,  

DLR